Skip Page Navigation
NASA JPL Caltech
NASA Logo - Jet Propulsion Laboratory + View the NASA Portal
+ Near-Earth Object (NEO) Program
Search JPL
JPL Home Earth Solar System Stars & Galaxies Technology
JPL Solar System Dynamics
BODIES ORBITS EPHEMERIDES TOOLS PHYSICAL DATA DISCOVERY FAQ SITE MAP
JPL Small-Body Database Browser
Search: [ help ]  
65698 Emmarochelle (1991 TP16)
Classification: Main-belt Asteroid          SPK-ID: 2065698
Ephemeris | Orbit Diagram | Orbital Elements | Physical Parameters | Discovery Circumstances ]

[ hide orbit diagram ]
Orbit Diagram
Note: Make sure you have Java enabled on your browser to see the applet. This applet is provided as a 3D orbit visualization tool. The applet was implemented using 2-body methods, and hence should not be used for determining accurate long-term trajectories (over several years or decades) or planetary encounter circumstances. For accurate long-term ephemerides, please instead use our Horizons system.
Orbit Viewer

Additional Notes: the orbits shown in the applet are color coded. The planets are white lines, and the asteroid/comet is a blue line. The bright white line indicates the portion of the orbit that is above the ecliptic plane, and the darker portion is below the ecliptic plane. Likewise for the asteroid/comet orbit, the light blue indicates the portion above the ecliptic plane, and the dark blue the portion below the ecliptic plane.

Orbit Viewer applet originally written and kindly provided by Osamu Ajiki (AstroArts), and further modified by Ron Baalke (JPL).


Orbital Elements at Epoch 2456400.5 (2013-Apr-18.0) TDB
Reference: MPO253777 (heliocentric ecliptic J2000)
 Element Value Uncertainty (1-sigma)   Units 
e 0.3398327 n/a  
a 2.5879969 n/a AU
q 1.7085109 n/a AU
i 5.40027 n/a deg
node 181.08591 n/a deg
peri 256.72433 n/a deg
M 36.25476 n/a deg
tp 2456247.3536744
(2012-Nov-15.85367440)
n/a JED
period 1520.7017565
4.16
n/a
n/a
d
yr
n 0.23673281 n/a deg/d
Q 3.4674829 n/a AU
  Orbit Determination Parameters
   # obs. used (total)      208  
   first obs. used      1991-??-??  
   last obs. used      2013-02-12  
   # oppositions      9  
   planetary ephem.      DE403  
   condition code      0  
   fit RMS      0.56  
   data source      MPC:mpn  
   producer      MPCLINUX  

Additional Information
 T_jup = 3.331 

Ephemeris | Orbit Diagram | Orbital Elements | Physical Parameters | Discovery Circumstances ]

Physical Parameter Table
Parameter Symbol Value Units Sigma Reference Notes
absolute magnitude H 16.0 mag n/a MPO253777  

65698 Emmarochelle           Discovered 1991 Oct. 6 by A. Lowe on plates taken at Palomar.
Emma Rochelle Slater (b. 1989) is the stepdaughter of the discoverer.
NOTE: some special characters may not display properly (any characters within {} are an attempt to place the proper accent above a character)
Reference: 20040107/MPCPages.arcLast Updated: 2004-01-07

Alternate Designations
 1991 TP16 = 2001 FV89 
Ephemeris | Orbit Diagram | Orbital Elements | Physical Parameters | Discovery Circumstances ]
ABOUT SSD CREDITS/AWARDS PRIVACY/COPYRIGHT GLOSSARY LINKS
FirstGov 2013-May-22 13:30 UT
(server date/time)  
NASA Home Page
Site Manager:   Donald K. Yeomans
Webmaster  Alan B. Chamberlin